This demonstration page uses our WeatherBlox Daily Observations layout. Learn more.

41.55636, -103.73856

Hourly Observations for August 4, 2019

Temp ( °F °C ) Dew Point ( °F °C ) Humidity (%) Winds ( mph kmh ) Pressure ( in mb ) Visibility ( mi km ) Precip ( " mm )
12:58 am 00:58 Hazy 78 25.6 58 14.4 50 50 SSE 9 15 30.01 1016 6 9.65604 0 0
1:58 am 01:58 Mostly Cloudy 77 25 59 14.8 53 53 S 12 19 29.99 1016 10 16.0934 0 0
2:58 am 02:58 Clear 69 20.7 58 14.3 67 67 SSE 8 13 30.02 1017 10 16.0934 0 0
3:58 am 03:58 Clear 69 20.7 59 14.8 69 69 S 14 22 30.04 1017 10 16.0934 0 0
4:58 am 04:58 Clear 67 19.6 59 15.2 76 76 SSE 9 15 30.04 1017 10 16.0934 0 0
5:58 am 05:58 Partly Cloudy 67 19.7 58 14.7 73 73 S 12 19 30.05 1018 10 16.0934 0 0
6:58 am 06:58 Mostly Clear 65 18.4 58 14.6 79 79 S 10 17 30.04 1017 10 16.0934 0 0
7:58 am 07:58 Clear 64 18 58 14.6 81 81 SSE 12 19 30.02 1017 10 16.0934 0 0
8:58 am 08:58 Clear 63 17.3 58 14.4 83 83 S 9 15 30.01 1016 10 16.0934 0 0
9:58 am 09:58 Clear 62 16.8 58 14.3 85 85 S 10 17 30 1016 10 16.0934 0 0
10:58 am 10:58 Clear 60 15.5 57 13.7 89 89 S 9 15 30.01 1016 10 16.0934 0 0
11:58 am 11:58 Sunny 60 15.4 56 13.4 88 88 SSW 12 19 30.03 1017 10 16.0934 0 0
12:58 pm 12:58 Sunny 64 17.6 58 14.3 81 81 SSW 10 17 30.02 1017 10 16.0934 0 0
1:58 pm 13:58 Sunny 69 20.7 59 15.2 71 71 SSW 8 13 30.01 1016 10 16.0934 0 0
2:58 pm 14:58 Sunny 76 24.3 58 14.7 55 55 SW 8 13 30.02 1017 10 16.0934 0 0
3:58 pm 15:58 Sunny 80 26.7 57 14 46 46 SSW 9 15 30.01 1016 10 16.0934 0 0
4:58 pm 16:58 Sunny 85 29.7 52 11.1 32 32 S 14 22 30 1016 10 16.0934 0 0
5:58 pm 17:58 Sunny 89 31.5 49 9.7 26 26 SSW 13 20 29.98 1015 10 16.0934 0 0
6:58 pm 18:58 Sunny 91 32.8 48 8.8 23 23 S 15 24 29.96 1015 10 16.0934 0 0
7:58 pm 19:58 Mostly Sunny 89 31.6 47 8.6 24 24 S 18 30 29.95 1014 10 16.0934 0 0
8:58 pm 20:58 Mostly Cloudy with Light Showers 77 25.1 51 10.7 40 40 E 9 15 30 1016 10 16.0934 0.07 1.778
9:58 pm 21:58 Sunny 88 31.2 47 8.5 24 24 SW 10 17 29.93 1014 10 16.0934 0 0
10:58 pm 22:58 Sunny 90 32 47 8.3 23 23 W 8 13 29.93 1013 10 16.0934 0 0
11:58 pm 23:58 Mostly Sunny 87 30.8 46 8 24 24 NNW 8 13 29.93 1014 10 16.0934 0 0

Powered by AerisWeather